Curtis, Michigan, United States (49820)
Lat: 46.21N, Lon: 85.75W
Wx Zone: MIZ015
Local Info
Past Weather Observations for Today

NOTE: This archive is for the closest National Weather Service station to Curtis. Information may differ from the station used for current weather conditions.

Click here for Long-term Archive

Time Weather Temperature Dewpoint Humidity Pressure Winds Precip Visibility
18:54
Overcast
Fog And Mist
72°F / 22°C 72°F / 22°C 100% 29.77 in
(1008 mb)
SW 8.1 mph
(SW 13 kph)
- 4SM
18:15
Overcast
73°F / 23°C 72°F / 22°C 94% 29.77 in
(1008 mb)
SW 5.8 mph
(SW 9 kph)
- 7SM
17:54
Overcast
Fog And Mist
73°F / 23°C 72°F / 22°C 94% 29.77 in
(1008 mb)
SW 10.4 mph
(SW 17 kph)
- 5SM
17:35
Overcast
Fog And Mist
73°F / 23°C 72°F / 22°C 94% 29.77 in
(1008 mb)
SW 11.5 mph
(SW 19 kph)
- 5SM
17:15
Overcast
Fog And Mist
72°F / 22°C 72°F / 22°C 100% 29.77 in
(1008 mb)
SW 10.4 mph
(SW 17 kph)
- 5SM
16:54
Overcast
Fog And Mist
72°F / 22°C 72°F / 22°C 100% 29.77 in
(1008 mb)
SW 5.8 mph
(SW 9 kph)
- 4SM
16:35
Overcast
Fog And Mist
72°F / 22°C 70°F / 21°C 94% 29.77 in
(1008 mb)
SSE 10.4 mph
(SSE 17 kph)
- 4SM
16:15
Overcast
Fog And Mist
72°F / 22°C 70°F / 21°C 94% 29.77 in
(1008 mb)
SW 10.4 mph
(SW 17 kph)
- 5SM
15:54
Overcast
Fog And Mist
72°F / 22°C 70°F / 21°C 94% 29.77 in
(1008 mb)
SW 12.7 mph
(SW 20 kph)
- 4SM
15:35
Overcast
Fog And Mist
72°F / 22°C 70°F / 21°C 94% 29.77 in
(1008 mb)
SSE 12.7 mph
(SSE 20 kph)
- 5SM
15:15
Overcast
Fog And Mist
72°F / 22°C 70°F / 21°C 94% 29.77 in
(1008 mb)
S 13.8 mph
(S 22 kph)
- 5SM
14:54
Overcast
Fog And Mist
72°F / 22°C 70°F / 21°C 94% 29.77 in
(1008 mb)
SW 10.4 mph
(SW 17 kph)
- 5SM
14:35
Overcast
Fog And Mist
72°F / 22°C 70°F / 21°C 94% 29.8 in
(1009 mb)
SW 12.7 mph
(SW 20 kph)
- 4SM
14:15
Overcast
Fog And Mist
72°F / 22°C 70°F / 21°C 94% 29.8 in
(1009 mb)
SW 11.5 mph
(SW 19 kph)
- 4SM
13:54
Overcast
Fog And Mist
72°F / 22°C 70°F / 21°C 94% 29.8 in
(1009 mb)
SW 11.5 mph
(SW 19 kph)
- 3SM
13:35
Overcast
Fog And Mist
72°F / 22°C 70°F / 21°C 94% 29.8 in
(1009 mb)
SW 13.8 mph
(SW 22 kph)
- 3SM
13:14
Overcast
Fog And Mist
72°F / 22°C 70°F / 21°C 94% 29.8 in
(1009 mb)
SSE 10.4 mph
(SSE 17 kph)
- 1 3/4SM
12:55
Overcast
Fog And Mist
72°F / 22°C 70°F / 21°C 94% 29.8 in
(1009 mb)
SSE 9.2 mph
(SSE 15 kph)
- 2SM
12:35
Overcast
Fog And Mist
72°F / 22°C 70°F / 21°C 94% 29.8 in
(1009 mb)
SSE 11.5 mph
(SSE 19 kph)
- 1 1/2SM
12:15
Overcast
Fog And Mist
72°F / 22°C 70°F / 21°C 94% 29.8 in
(1009 mb)
SSE 13.8 mph
(SSE 22 kph)
- 1 3/4SM
11:54
Overcast
Fog And Mist
70°F / 21°C 70°F / 21°C 100% 29.8 in
(1009 mb)
S 11.5 mph
(S 19 kph)
- 1 3/4SM
11:35
Overcast
Fog And Mist
70°F / 21°C 68°F / 20°C 94% 29.83 in
(1010 mb)
S 10.4 mph
(S 17 kph)
- 2 1/2SM
11:15
Overcast
Fog And Mist
70°F / 21°C 68°F / 20°C 94% 29.83 in
(1010 mb)
S 8.1 mph
(S 13 kph)
- 1 3/4SM
10:55
Overcast
Fog And Mist
68°F / 20°C 68°F / 20°C 100% 29.83 in
(1010 mb)
S 5.8 mph
(S 9 kph)
0.01 in
(0.25 mm)
4SM
10:35
Overcast
Fog And Mist
68°F / 20°C 66°F / 19°C 94% 29.83 in
(1010 mb)
S 3.5 mph
(S 6 kph)
- 5SM
10:15
Overcast
Fog And Mist
68°F / 20°C 66°F / 19°C 94% 29.83 in
(1010 mb)
SSE 6.9 mph
(SSE 11 kph)
- 5SM
09:55
Overcast
Fog And Mist
68°F / 20°C 66°F / 19°C 94% 29.8 in
(1009 mb)
SSE 9.2 mph
(SSE 15 kph)
- 3SM
09:35
Overcast
Fog And Mist
68°F / 20°C 66°F / 19°C 94% 29.77 in
(1008 mb)
SE 11.5 mph
(SE 19 kph)
- 2 1/2SM
09:15
Overcast
Fog And Mist
68°F / 20°C 68°F / 20°C 100% 29.8 in
(1009 mb)
SSE 16.1 mph
(SSE 26 kph)
- 2SM
08:55
Overcast
Fog And Mist
68°F / 20°C 66°F / 19°C 94% 29.83 in
(1010 mb)
SSE 10.4 mph
(SSE 17 kph)
- 2SM
08:35
Overcast
Fog And Mist
66°F / 19°C 66°F / 19°C 100% 29.83 in
(1010 mb)
SSE 9.2 mph
(SSE 15 kph)
- 1 3/4SM
08:14
Overcast
Fog And Mist
66°F / 19°C 66°F / 19°C 100% 29.83 in
(1010 mb)
SE 11.5 mph
(SE 19 kph)
- 2 1/2SM
07:55
Overcast
Fog And Mist
66°F / 19°C 64°F / 18°C 94% 29.86 in
(1011 mb)
SE 6.9 mph
(SE 11 kph)
- 2 1/2SM
07:34
Overcast
Fog And Mist
66°F / 19°C 64°F / 18°C 94% 29.86 in
(1011 mb)
SE 5.8 mph
(SE 9 kph)
- 5SM
07:15
Overcast
66°F / 19°C 64°F / 18°C 94% 29.89 in
(1012 mb)
SE 8.1 mph
(SE 13 kph)
- 7SM
06:54
Overcast
Fog And Mist
64°F / 18°C 64°F / 18°C 100% 29.86 in
(1011 mb)
E 4.6 mph
(E 7 kph)
0.07 in
(1.78 mm)
5SM
06:35
Overcast
Fog And Mist
64°F / 18°C 64°F / 18°C 100% 29.86 in
(1011 mb)
E 8.1 mph
(E 13 kph)
0.06 in
(1.52 mm)
2SM
06:15
Overcast
Light Rain
66°F / 19°C 64°F / 18°C 94% 29.89 in
(1012 mb)
E 6.9 mph
(E 11 kph)
0.03 in
(0.76 mm)
5SM
05:54
Overcast
Light Rain
66°F / 19°C 64°F / 18°C 94% 29.89 in
(1012 mb)
E 3.5 mph
(E 6 kph)
0.16 in
(4.06 mm)
3SM
05:35
Overcast
Heavy Rain
66°F / 19°C 64°F / 18°C 94% 29.89 in
(1012 mb)
E 3.5 mph
(E 6 kph)
0.11 in
(2.79 mm)
2 1/2SM
05:15
Overcast
Rain
66°F / 19°C 64°F / 18°C 94% 29.89 in
(1012 mb)
Calm 0.05 in
(1.27 mm)
2SM
04:54
Overcast
Heavy Rain
66°F / 19°C 64°F / 18°C 94% 29.89 in
(1012 mb)
Calm 0.12 in
(3.05 mm)
4SM
04:15
Overcast
Rain
66°F / 19°C 64°F / 18°C 94% 29.92 in
(1013 mb)
S 6.9 mph
(S 11 kph)
0.03 in
(0.76 mm)
7SM
03:54
Overcast
Light Rain
66°F / 19°C 64°F / 18°C 94% 29.92 in
(1013 mb)
S 6.9 mph
(S 11 kph)
0.03 in
(0.76 mm)
7SM
03:35
Overcast
Light Rain
68°F / 20°C 63°F / 17°C 83% 29.89 in
(1012 mb)
S 6.9 mph
(S 11 kph)
- 7SM
03:15
Overcast
70°F / 21°C 61°F / 16°C 73% 29.89 in
(1012 mb)
S 5.8 mph
(S 9 kph)
- 7SM
02:54
Overcast
70°F / 21°C 61°F / 16°C 73% 29.89 in
(1012 mb)
SSE 5.8 mph
(SSE 9 kph)
- 10SM
02:35
Overcast
70°F / 21°C 61°F / 16°C 73% 29.89 in
(1012 mb)
S 6.9 mph
(S 11 kph)
- 10SM
02:15
Overcast
70°F / 21°C 61°F / 16°C 73% 29.89 in
(1012 mb)
SE 5.8 mph
(SE 9 kph)
- 10SM
01:54
Overcast
72°F / 22°C 61°F / 16°C 69% 29.92 in
(1013 mb)
SE 5.8 mph
(SE 9 kph)
- 10SM
01:35
Overcast
70°F / 21°C 61°F / 16°C 73% 29.92 in
(1013 mb)
SE 5.8 mph
(SE 9 kph)
- 10SM
01:15
Mostly Cloudy
70°F / 21°C 63°F / 17°C 78% 29.92 in
(1013 mb)
Calm - 7SM
00:54
Clear
68°F / 20°C 63°F / 17°C 83% 29.92 in
(1013 mb)
SE 3.5 mph
(SE 6 kph)
- 10SM
00:35
Clear
68°F / 20°C 63°F / 17°C 83% 29.92 in
(1013 mb)
SE 3.5 mph
(SE 6 kph)
- 10SM
00:14
Clear
68°F / 20°C 64°F / 18°C 88% 29.92 in
(1013 mb)
SE 4.6 mph
(SE 7 kph)
- 7SM
Time Weather Temperature Dewpoint Humidity Pressure Winds Precip Visibility


Weather for websites

WeatherForYou.com, LLC is not responsible for any damages or problems caused by this service. Current weather conditions are obtained from the closest station including government and personal stations which may have varying degrees of accuracy. Weather forecasts are derived from the NOAA NDFD. Like all things, this site belongs to Jesus Christ... He just trusts us to maintain it. If you have any questions or comments email webmaster@weatherforyou.com

Copyright © 2016, WeatherForYou.com LLC. All rights reserved.